Location: Bartshausen
(51.8454°N, 9.8167°E)
Time: 00:19:34
(UTC+00:00)

Cosmos 1420 Rocket - Pass Details

Date: 08 November 2025
Orbit: 750 x 777 km, 74.0° (Epoch: 04 December)

Event Time Altitude Azimuth Distance (km) Brightness Sun altitude
Rises 05:38:52 0° 212° (SSW) 3,228 7.1 -7.9°
Reaches altitude 10° 05:41:15 10° 215° (SW) 2,310 6.3 -7.5°
Maximum altitude 05:46:28 67° 298° (WNW) 844 4.0 -6.7°
Drops below altitude 10° 05:51:46 10° 21° (NNE) 2,337 6.6 -6.0°
Sets 05:54:11 0° 25° (NNE) 3,270 7.3 -5.6°
